Miscellaneous Local Product
Issued by NWS Hastings, NE

Home | Current Version | Previous Version | Graphics & Text | Print | Product List | Glossary On
Versions: 1 2 3 4 5 6 7 8 9 10 11 12 13 14 15 16 17 18 19 20 21 22 23 24 25 26 27 28 29 30 31 32 33 34 35 36 37 38 39 40 41 42 43 44 45 46 47 48 49 50
000
AXUS43 KGID 211702
MISGRI

GID CWA HOURLY WEATHER ROUNDUP
NATIONAL WEATHER SERVICE HASTINGS NE
1200 PM CDT TUE OCT 21 2014

NOTE: "FAIR" INDICATES FEW OR NO CLOUDS BELOW 12,000 FEET WITH NO
SIGNIFICANT WEATHER AND/OR OBSTRUCTIONS TO VISIBILITY.

...SOUTH CENTRAL NEBRASKA...

CITY           SKY/WX    TMP DP  RH WIND       PRES   REMARKS
GRAND ISLAND   SUNNY     71  45  39 S12       30.08F
HASTINGS       SUNNY     72  40  31 S12       30.08F
KEARNEY        SUNNY     72  43  35 SE17G24   30.08S
ORD            SUNNY     72  43  35 S16       30.03F
YORK           SUNNY     72  46  40 S10       30.09F
AURORA         SUNNY     70  42  37 SW9       30.08F
LEXINGTON      SUNNY     71  44  38 S18G24    30.05F
HOLDREGE       SUNNY     68  42  39 S18G24    30.07F
HEBRON         SUNNY     72  43  34 S8        30.10S

...NEBRASKA PANHANDLE...

CITY           SKY/WX    TMP DP  RH WIND       PRES   REMARKS
CHADRON        MOSUNNY   71  48  43 SW6       29.88F
ALLIANCE       SUNNY     66  48  52 S10       29.94F
SCOTTSBLUFF    MOSUNNY   62  43  49 CALM      29.96F
SIDNEY         SUNNY     65  48  54 S9        29.99F

...WESTERN AND NORTH CENTRAL NEBRASKA...

CITY           SKY/WX    TMP DP  RH WIND       PRES   REMARKS
VALENTINE      SUNNY     72  48  42 S23G29    29.95S
AINSWORTH      SUNNY     70  46  42 S22G28    29.98F
ONEILL         SUNNY     75  46  35 S20       30.01F
BROKEN BOW     SUNNY     73  43  33 S18       30.04F
IMPERIAL       PTSUNNY   64  56  75 S15G23    30.02F
NORTH PLATTE   SUNNY     68  53  58 S18       30.03F
MCCOOK         SUNNY     71  55  56 S17G24    30.04F

...EASTERN NEBRASKA...

CITY           SKY/WX    TMP DP  RH WIND       PRES   REMARKS
NORFOLK        SUNNY     71  44  37 S15       30.06F
SO SIOUX CITY  SUNNY     66  42  41 SE9       30.09F
TEKAMAH        SUNNY     67  42  40 SE9       30.10F
COLUMBUS       SUNNY     72  45  37 S9        30.09F
ALBION         SUNNY     67  45  44 S7        30.06F
OMAHA EPPLEY   SUNNY     65  42  43 SE7       30.12F
OFFUTT AFB     SUNNY     66  46  48 SE8       30.11F
MILLARD        SUNNY     64  46  52 SE5       30.11F
LINCOLN        SUNNY     69  48  47 SE7       30.11F
NEBRASKA CITY  SUNNY     65  36  34 SE5       30.13F
BEATRICE       SUNNY     70  48  45 S7        30.10F
FALLS CITY     SUNNY     67  45  45 S5        30.12F

...NORTHERN KANSAS...

CITY           SKY/WX    TMP DP  RH WIND       PRES   REMARKS
GOODLAND       MOSUNNY   61  55  81 S15       30.06F
HILL CITY      SUNNY     70  58  65 S13G22    30.07
NORTON         MOSUNNY   70  52  52 SE12G18   30.06F
PHILLIPSBURG   SUNNY     72  55  56 SE10G16   30.08F
SMITH CENTER   SUNNY     70  54  56 SE13      30.09F
BELOIT         SUNNY     70  54  56 SE6       30.09F
HAYS           SUNNY     70  57  64 SE15      30.08F
RUSSELL        MOSUNNY   70  58  65 SE10      30.07F
CONCORDIA      SUNNY     72  55  55 SE8       30.10F
SALINA         SUNNY     74  57  55 SE8       30.10F
TOPEKA         SUNNY     70  50  49 E3        30.13F



USA.gov is the U.S. government's official web portal to all federal, state and local government web resources and services.